Wetbulb
71.53 72.40 72.50 71.96 72.17 71.10 70.62 69.76 69.74 69.37 68.77 69.26 70.56 71.01 70.56 71.81 71.83 71.31 70.98 75.42 76.06 76.26 76.04 76.12 76.23 75.88 75.06 75.80 75.59 75.29 75.37 75.21 74.99 75.03 74.88 75.01 74.59 74.36 75.12 74.78 74.99 74.79 75.20
71.71 71.80 71.35 71.08 70.80 71.19 70.76 70.46 69.90 69.31 68.51 68.62 70.13 72.09 70.90 71.12 71.03 71.44 70.88 71.81 75.88 76.38 76.36 76.18 75.91 76.14 76.22 75.99 75.50 75.73 75.50 75.29 75.26 75.30 75.55 75.24 75.81 75.49 74.74 74.11 74.10 74.21 74.35
72.22 71.82 71.19 70.71 70.94 71.41 71.10 70.30 69.69 68.63 68.23 69.98 71.09 71.02 70.65 71.95 70.92 70.53 70.32 70.27 72.51 75.61 75.22 76.38 76.95 76.88 76.32 76.15 76.20 75.88 76.17 76.05 75.59 75.49 75.53 75.31 75.05 74.98 75.18 74.94 75.01 74.53 75.06
72.82 72.06 71.28 71.16 71.25 71.62 71.26 70.12 69.49 68.47 69.06 70.12 69.69 70.13 70.39 70.74 71.91 70.30 69.53 70.08 70.44 71.57 74.17 75.31 75.74 75.38 76.01 76.12 76.30 76.08 75.85 76.42 75.82 76.10 75.46 75.37 75.27 75.34 75.32 75.23 75.17 74.95 74.60
74.17 72.51 71.77 71.77 72.34 71.44 71.80 70.53 70.28 69.35 68.59 69.08 69.73 70.53 70.07 71.50 71.78 72.13 70.34 69.82 70.03 71.23 70.74 73.04 75.01 74.66 75.75 76.33 76.16 76.13 76.28 75.97 76.31 76.14 75.65 75.55 75.73 75.48 75.71 75.64 75.71 75.72 75.36
72.53 72.71 72.54 71.99 72.66 71.75 71.62 71.01 69.99 70.35 69.65 69.76 71.35 71.52 71.05 71.91 71.73 71.46 71.24 70.83 70.21 70.54 70.54 70.62 70.70 72.69 75.67 76.43 76.58 76.67 76.24 76.36 76.28 75.55 75.91 75.64 75.26 75.34 75.89 75.71 75.46 75.46 75.14
72.91 73.10 72.72 72.47 72.13 71.77 71.63 71.36 70.32 69.53 69.76 70.37 68.61 68.76 69.27 71.02 71.23 70.92 71.74 70.95 70.12 70.50 70.25 70.33 69.88 70.79 72.49 75.88 75.90 76.17 76.53 76.40 76.07 75.72 76.12 75.94 75.69 75.61 75.56 75.43 74.36 74.72 74.86
73.36 73.76 72.67 72.03 71.78 71.55 71.07 71.05 70.05 69.26 69.55 70.57 67.78 67.14 64.29 66.34 68.51 69.31 69.13 70.73 70.42 70.66 70.51 70.23 69.77 69.77 70.44 72.12 74.00 76.24 76.79 76.44 76.03 76.01 75.93 75.87 75.79 75.36 75.13 75.13 74.04 74.02 74.09
74.01 74.12 73.35 72.64 71.67 71.31 71.23 70.84 70.79 69.91 68.41 69.66 69.92 66.74 62.23 61.63 61.97 65.49 67.71 69.35 70.56 70.03 71.31 71.30 70.53 70.39 70.15 70.22 72.18 73.69 75.59 75.16 76.36 76.29 76.09 75.94 75.91 75.76 75.31 74.91 74.48 74.30 73.98
73.78 73.61 72.95 72.57 72.43 71.92 70.59 70.90 71.66 70.43 69.73 67.84 69.51 69.57 67.55 64.90 60.55 58.86 64.68 66.61 67.69 69.05 69.87 71.28 71.36 71.05 70.96 70.51 71.35 72.17 73.20 74.09 75.26 75.83 75.85 75.83 76.12 75.61 75.24 75.29 75.10 74.49 74.29
72.65 74.54 73.06 72.44 72.14 72.50 72.11 71.77 71.79 70.97 70.30 69.32 68.47 68.59 65.93 66.56 63.30 60.74 60.22 62.20 64.58 64.61 67.48 70.68 71.93 71.77 71.73 71.67 71.13 71.84 73.36 73.46 74.16 74.74 75.36 75.78 75.86 75.63 75.38 74.91 74.89 74.61 73.99
70.61 71.77 73.80 72.22 72.83 72.16 72.25 72.24 71.71 71.38 70.94 70.86 70.03 69.89 67.14 66.04 65.29 63.28 61.80 62.70 63.64 64.67 66.83 66.79 68.20 71.23 72.52 72.34 73.50 73.68 74.02 74.46 74.40 74.22 74.36 74.59 74.81 75.53 75.24 74.88 74.69 74.60 74.16
68.05 67.88 70.73 73.55 72.37 72.20 72.36 72.39 71.97 71.63 71.43 70.68 70.13 70.28 70.21 68.32 68.38 65.87 65.85 64.43 64.35 65.73 66.18 67.12 68.54 69.91 71.43 71.77 72.50 74.91 74.74 73.94 73.71 73.08 73.10 73.50 73.94 74.21 74.19 74.26 74.20 73.46 73.34
68.72 68.12 69.64 73.16 73.58 73.25 72.21 72.34 71.89 72.25 72.04 71.13 70.38 70.45 70.52 70.82 70.26 68.86 66.85 65.62 62.58 63.38 64.69 65.49 68.23 69.78 70.85 71.11 71.99 73.93 72.85 72.79 72.50 71.86 71.86 72.46 72.79 72.91 72.90 73.17 72.74 72.92 72.32
70.77 70.67 71.31 69.77 70.50 71.43 72.70 71.63 72.18 71.75 71.94 71.58 71.58 70.74 70.66 71.31 70.57 70.44 68.72 66.65 64.15 60.53 60.99 64.87 65.43 68.82 69.35 70.46 71.55 72.23 72.01 72.11 71.70 71.33 71.12 71.25 71.53 71.84 72.21 71.88 71.05 70.45 69.67
71.11 70.38 70.57 70.14 68.52 68.57 70.78 72.00 71.12 72.19 70.89 70.68 71.45 70.96 70.81 71.17 71.09 70.61 69.67 68.14 65.60 63.52 60.83 63.16 65.60 68.49 69.21 70.53 71.15 71.78 71.27 71.33 71.34 70.87 70.29 70.18 70.42 71.03 70.59 69.77 68.93 68.46 68.04
71.56 70.15 68.27 66.92 66.03 66.25 67.95 71.50 71.08 70.27 71.01 71.57 71.46 71.60 71.41 70.35 69.52 69.57 69.80 68.79 66.78 65.25 63.34 63.17 66.88 68.60 69.14 69.33 69.98 71.11 70.93 69.92 70.03 70.14 70.12 69.53 68.99 69.03 68.66 67.86 67.61 67.42 67.31
71.88 71.51 69.47 67.96 67.37 67.19 68.20 70.21 69.92 69.96 70.93 70.80 70.86 70.14 70.50 71.94 69.89 69.80 70.30 68.74 67.73 66.27 65.37 63.94 65.17 67.51 68.23 68.16 68.18 69.08 69.92 70.86 69.17 70.07 69.31 68.45 67.53 67.01 66.27 65.96 65.77 65.63 65.37
72.98 70.95 69.30 67.80 69.06 68.83 68.05 67.75 67.37 67.08 67.39 67.66 68.43 68.70 69.23 69.93 70.54 69.78 69.87 69.53 68.27 68.65 66.35 65.41 65.03 66.89 67.28 67.43 68.02 69.67 69.02 69.02 69.33 70.04 68.27 67.08 66.43 65.76 64.96 64.15 63.77 63.13 62.47
73.29 72.66 71.49 70.35 67.57 67.37 69.56 67.15 67.39 67.71 67.98 67.36 68.67 68.61 68.38 68.96 70.32 69.35 70.64 68.54 68.25 66.66 66.39 65.67 65.24 64.93 65.47 65.81 66.87 66.15 67.16 67.70 67.29 69.48 68.51 66.54 65.81 65.74 64.63 63.38 63.27 62.54 60.47
71.31 71.59 71.75 69.56 67.98 68.93 71.13 69.28 67.15 66.92 66.62 65.67 66.86 66.66 68.64 70.04 70.17 69.70 69.20 65.60 66.99 67.03 64.63 64.27 63.22 63.99 64.76 64.36 64.32 66.49 67.23 67.25 66.03 66.39 65.66 64.42 63.38 63.27 63.42 64.06 63.81 64.36 61.55
69.51 68.90 69.17 70.19 68.43 69.96 68.14 68.54 67.35 65.32 65.47 65.91 66.70 66.74 65.76 67.37 68.10 68.57 68.29 67.63 66.72 66.58 66.26 65.97 64.52 65.05 65.09 64.52 65.05 65.25 66.24 63.53 62.06 65.32 63.22 61.16 62.17 60.55 61.09 61.59 62.94 62.76 62.01
69.12 69.10 68.13 68.02 68.90 71.32 66.78 66.81 67.97 66.18 66.11 66.60 66.58 66.83 69.26 70.87 70.03 69.51 67.13 66.79 67.30 67.26 67.64 67.37 66.76 65.75 65.28 65.15 64.68 64.30 65.86 63.82 62.88 63.33 62.78 59.67 60.31 58.88 60.24 60.23 61.78 61.85 61.51
69.23 68.94 68.70 68.65 68.67 69.44 65.46 65.40 67.37 67.62 67.52 67.41 67.61 67.26 66.14 66.39 66.44 66.53 66.64 65.76 65.42 66.28 66.87 68.29 68.74 68.61 66.22 65.28 65.62 65.64 66.52 65.43 64.38 62.38 62.72 58.76 60.35 58.46 59.97 59.05 61.63 61.59 60.97
67.75 67.37 67.28 67.12 67.35 65.99 62.54 62.95 66.39 66.01 66.33 65.50 65.97 65.18 65.21 65.88 62.98 63.66 65.17 65.03 64.85 65.54 66.01 65.17 64.96 65.80 65.59 65.48 66.96 66.78 65.08 63.91 62.95 60.77 62.19 61.43 59.95 60.09 60.31 59.79 60.48 61.85 60.16
67.15 67.17 66.29 65.48 64.02 64.38 61.44 61.31 63.38 64.90 63.18 63.46 63.86 66.83 62.73 61.41 60.15 60.37 65.37 63.49 62.70 65.40 67.18 67.03 66.78 66.44 65.94 66.28 65.93 67.53 66.78 64.09 63.47 61.72 62.77 62.18 60.25 60.09 57.13 59.40 60.00 60.60 59.74
MSLP
1017.30 1017.45 1017.55 1017.70 1017.71 1018.02 1018.15 1018.40 1018.73 1018.86 1019.03 1019.25 1019.39 1019.29 1019.19 1019.19 1019.36 1019.56 1019.59 1019.53 1019.75 1019.87 1019.95 1020.17 1020.42 1020.67 1020.84 1021.07 1021.26 1021.51 1021.70 1021.85 1022.01 1022.12 1022.24 1022.20 1022.46 1022.59 1022.67 1022.83 1023.04 1023.16 1023.24
1016.99 1017.18 1017.19 1017.24 1017.37 1017.64 1017.87 1018.18 1018.60 1018.80 1019.01 1019.32 1019.40 1019.14 1019.02 1019.10 1019.31 1019.46 1019.55 1019.51 1019.43 1019.60 1019.79 1019.93 1020.15 1020.39 1020.56 1020.76 1020.96 1021.23 1021.42 1021.64 1021.86 1021.96 1022.07 1022.15 1022.30 1022.53 1022.76 1022.83 1022.99 1023.14 1023.23
1016.63 1016.76 1016.81 1017.01 1017.16 1017.31 1017.54 1017.95 1018.28 1018.54 1018.85 1018.92 1019.16 1018.82 1018.94 1019.00 1019.22 1019.23 1019.26 1019.28 1019.30 1019.30 1019.41 1019.61 1019.78 1020.01 1020.21 1020.39 1020.56 1020.76 1021.04 1021.24 1021.58 1021.81 1021.94 1022.07 1022.29 1022.53 1022.71 1022.85 1022.88 1023.00 1023.07
1016.25 1016.27 1016.44 1016.67 1016.90 1017.25 1017.39 1017.75 1018.25 1018.48 1018.78 1018.91 1018.99 1018.92 1018.69 1018.90 1018.83 1019.05 1019.03 1019.11 1019.20 1019.30 1019.30 1019.41 1019.56 1019.82 1019.90 1019.94 1020.12 1020.43 1020.76 1021.02 1021.29 1021.53 1021.81 1022.01 1022.20 1022.32 1022.57 1022.67 1022.76 1022.78 1022.93
1015.73 1016.00 1016.06 1016.17 1016.57 1017.02 1017.32 1017.75 1018.02 1018.30 1018.54 1018.74 1018.84 1018.76 1018.61 1018.59 1018.46 1018.46 1018.79 1019.08 1019.17 1019.23 1019.40 1019.46 1019.42 1019.50 1019.56 1019.63 1019.84 1020.11 1020.38 1020.70 1021.01 1021.30 1021.61 1021.85 1021.94 1022.10 1022.29 1022.43 1022.53 1022.68 1022.82
1015.73 1015.79 1015.99 1016.16 1016.34 1016.84 1017.16 1017.62 1017.87 1018.15 1018.35 1018.45 1018.65 1018.52 1018.48 1018.34 1018.12 1018.21 1018.38 1018.60 1018.79 1018.93 1019.12 1019.28 1019.33 1019.29 1019.34 1019.25 1019.44 1019.73 1019.98 1020.24 1020.58 1020.95 1021.27 1021.53 1021.73 1021.94 1022.07 1022.18 1022.39 1022.66 1022.90
1015.77 1015.76 1016.07 1016.20 1016.43 1016.76 1016.95 1017.37 1017.80 1018.06 1018.42 1018.41 1018.65 1018.43 1018.30 1018.08 1017.92 1018.16 1018.05 1018.29 1018.44 1018.45 1018.68 1018.92 1019.15 1019.24 1019.29 1019.30 1019.41 1019.55 1019.57 1019.77 1020.15 1020.52 1020.83 1021.16 1021.48 1021.71 1021.85 1022.03 1022.20 1022.41 1022.54
1015.75 1015.72 1015.92 1016.25 1016.37 1016.72 1017.08 1017.45 1017.80 1018.03 1018.11 1018.20 1018.50 1018.81 1018.76 1018.22 1017.95 1018.01 1017.97 1018.17 1018.20 1018.32 1018.50 1018.65 1018.82 1019.00 1019.20 1019.36 1019.30 1019.20 1019.20 1019.55 1019.80 1019.99 1020.33 1020.68 1020.98 1021.22 1021.47 1021.67 1021.86 1022.06 1022.19
1015.55 1015.56 1015.67 1016.01 1016.32 1016.49 1016.92 1017.04 1017.36 1017.73 1017.90 1017.95 1017.84 1018.43 1018.65 1018.61 1018.34 1017.90 1017.73 1017.64 1017.58 1017.61 1017.67 1017.99 1018.29 1018.49 1018.71 1018.83 1019.01 1019.03 1019.08 1019.20 1019.45 1019.57 1019.79 1020.14 1020.41 1020.70 1021.02 1021.16 1021.41 1021.61 1021.77
1015.18 1015.25 1015.53 1015.80 1015.99 1016.30 1016.62 1016.73 1017.05 1017.28 1017.66 1017.86 1017.95 1017.99 1017.80 1017.92 1018.21 1018.20 1017.62 1017.41 1017.34 1017.29 1017.39 1017.38 1017.45 1017.72 1017.97 1018.42 1018.55 1018.61 1018.65 1018.86 1019.21 1019.38 1019.50 1019.62 1019.90 1020.29 1020.52 1020.67 1020.78 1020.99 1021.24
1015.20 1014.99 1015.10 1015.49 1015.86 1015.95 1016.02 1016.22 1016.52 1016.94 1017.23 1017.39 1017.21 1017.56 1017.78 1017.97 1018.07 1018.30 1018.30 1017.60 1017.35 1016.96 1016.86 1016.96 1017.01 1017.23 1017.40 1017.71 1017.88 1017.98 1018.13 1018.37 1018.53 1018.82 1019.02 1019.19 1019.45 1019.61 1019.86 1020.18 1020.39 1020.60 1020.82
1015.38 1015.17 1015.09 1015.35 1015.47 1015.74 1015.75 1015.85 1016.12 1016.38 1016.47 1016.61 1016.67 1016.66 1016.94 1017.35 1017.48 1017.82 1018.09 1017.68 1017.60 1016.67 1016.23 1016.22 1016.50 1016.45 1016.55 1016.80 1016.98 1017.17 1017.36 1017.45 1017.79 1018.06 1018.38 1018.75 1019.07 1019.22 1019.44 1019.76 1019.97 1020.15 1020.34
1015.27 1015.23 1015.30 1015.36 1015.36 1015.41 1015.49 1015.62 1015.97 1016.26 1016.32 1016.46 1016.56 1016.69 1016.51 1016.81 1016.73 1017.07 1017.47 1017.52 1017.59 1016.76 1016.24 1015.79 1015.49 1015.56 1015.75 1016.02 1016.14 1016.33 1016.50 1016.83 1017.10 1017.36 1017.70 1018.11 1018.54 1018.89 1019.24 1019.36 1019.64 1019.82 1020.06
1014.79 1014.91 1014.95 1015.06 1014.97 1015.09 1015.32 1015.54 1015.93 1016.06 1016.10 1016.30 1016.41 1016.53 1016.56 1016.49 1016.54 1016.78 1017.02 1017.31 1017.44 1017.13 1016.62 1015.90 1015.21 1015.02 1015.01 1015.21 1015.42 1015.74 1016.09 1016.28 1016.43 1016.60 1016.94 1017.37 1017.92 1018.39 1018.87 1019.13 1019.47 1019.62 1019.94
1014.57 1014.74 1014.86 1014.96 1015.11 1015.16 1015.29 1015.44 1015.64 1015.68 1015.73 1015.62 1015.79 1015.97 1016.04 1015.77 1015.98 1016.13 1016.34 1016.64 1017.01 1017.16 1016.60 1015.53 1015.42 1014.39 1014.39 1014.53 1014.67 1015.06 1015.42 1015.66 1015.92 1016.18 1016.44 1016.64 1017.05 1017.69 1018.25 1018.88 1019.42 1019.76 1020.19
1014.40 1014.55 1014.61 1014.83 1015.00 1014.98 1015.07 1015.22 1015.14 1015.19 1015.55 1015.40 1015.40 1015.39 1015.26 1015.15 1015.37 1015.60 1015.85 1015.94 1016.16 1016.32 1016.40 1015.55 1014.92 1014.53 1014.08 1014.12 1014.33 1014.60 1014.87 1015.32 1015.42 1015.69 1016.02 1016.29 1016.82 1017.34 1017.79 1018.59 1019.23 1019.74 1020.19
1014.02 1014.23 1014.31 1014.32 1014.47 1014.88 1015.46 1015.56 1015.58 1015.63 1015.70 1015.42 1015.36 1015.31 1014.92 1014.71 1014.73 1014.80 1015.22 1015.41 1015.61 1015.53 1015.70 1015.05 1014.80 1014.21 1014.14 1014.15 1014.28 1014.26 1014.47 1014.75 1015.02 1015.36 1015.78 1016.14 1016.49 1017.16 1017.83 1018.30 1018.99 1019.54 1020.00
1013.48 1013.58 1013.61 1013.95 1014.83 1016.07 1016.11 1016.15 1015.94 1015.75 1015.42 1015.43 1015.34 1015.26 1015.00 1014.66 1014.55 1014.44 1014.44 1014.46 1014.88 1014.98 1015.07 1014.87 1014.82 1014.53 1014.30 1014.28 1014.48 1014.63 1014.54 1014.49 1014.83 1014.86 1015.19 1015.79 1016.40 1016.98 1017.57 1018.14 1018.92 1019.37 1019.81
1013.17 1013.14 1013.31 1014.18 1015.29 1016.00 1016.18 1016.37 1016.47 1015.76 1015.78 1015.43 1015.00 1015.01 1014.94 1014.77 1014.47 1014.16 1013.99 1013.99 1013.97 1014.53 1014.75 1014.69 1014.60 1014.62 1014.51 1014.14 1014.05 1014.13 1014.46 1014.77 1014.82 1014.93 1015.24 1015.66 1016.19 1016.83 1017.44 1018.12 1018.77 1019.22 1019.75
1012.83 1013.00 1013.13 1014.55 1015.61 1015.91 1015.62 1015.12 1015.54 1014.28 1014.11 1014.11 1014.47 1014.49 1014.77 1014.62 1014.29 1013.96 1013.78 1013.73 1013.83 1014.27 1014.50 1014.55 1014.61 1014.49 1014.23 1013.50 1013.70 1013.54 1013.77 1014.40 1014.70 1014.77 1015.25 1015.69 1016.30 1016.99 1017.52 1017.98 1018.50 1019.07 1019.64
1012.85 1013.04 1013.00 1013.14 1013.71 1013.28 1013.79 1013.62 1013.92 1013.76 1013.34 1013.82 1014.22 1014.20 1014.29 1013.94 1013.79 1013.67 1013.52 1013.40 1013.44 1013.70 1013.64 1013.73 1013.23 1012.80 1012.79 1013.07 1013.21 1012.87 1013.31 1014.12 1014.13 1014.27 1014.87 1015.28 1015.99 1016.90 1017.35 1017.86 1018.29 1018.81 1019.33
1012.72 1013.66 1013.30 1013.49 1014.05 1013.86 1013.38 1013.35 1013.75 1014.31 1013.92 1013.98 1013.96 1013.94 1013.78 1013.44 1013.37 1013.02 1012.71 1012.50 1012.74 1012.80 1012.87 1012.79 1012.28 1012.05 1011.68 1011.90 1012.29 1012.66 1012.91 1013.95 1014.09 1014.05 1014.64 1015.38 1015.55 1016.58 1017.25 1017.79 1018.18 1018.33 1018.90
1013.46 1013.59 1013.41 1013.58 1013.72 1013.76 1013.66 1013.93 1014.27 1013.98 1013.64 1013.89 1014.18 1013.75 1013.42 1013.27 1012.92 1012.59 1012.19 1012.10 1012.15 1011.99 1012.00 1011.92 1011.59 1011.20 1011.07 1011.03 1011.77 1012.12 1012.52 1012.87 1013.46 1013.74 1014.15 1015.27 1015.56 1016.32 1016.81 1017.20 1017.65 1018.07 1018.55
1013.61 1013.60 1013.63 1013.52 1013.43 1013.48 1013.72 1013.83 1013.70 1013.70 1013.85 1013.77 1013.70 1013.50 1013.45 1013.07 1012.68 1012.39 1012.04 1012.11 1012.03 1011.59 1011.45 1011.28 1010.89 1010.65 1010.72 1010.95 1011.06 1011.45 1011.79 1012.48 1012.89 1013.22 1013.71 1014.80 1015.38 1015.94 1016.53 1016.87 1017.24 1017.83 1018.28
1013.77 1013.86 1013.73 1013.55 1013.55 1013.83 1013.84 1013.82 1013.84 1013.90 1013.82 1013.77 1013.69 1013.68 1013.50 1013.04 1012.71 1012.48 1011.99 1011.82 1011.59 1011.34 1011.08 1010.91 1010.61 1010.43 1010.36 1010.39 1010.64 1011.29 1011.70 1012.16 1012.46 1012.77 1013.26 1013.65 1014.72 1015.61 1016.66 1017.27 1017.32 1017.50 1017.87
1013.89 1013.89 1013.98 1014.09 1014.19 1014.26 1014.05 1013.88 1013.99 1014.07 1014.02 1014.04 1013.82 1013.67 1013.50 1013.29 1013.11 1012.42 1012.14 1012.22 1012.16 1011.93 1011.56 1011.08 1010.97 1010.83 1010.61 1010.53 1010.62 1010.88 1011.09 1011.40 1011.78 1012.23 1012.37 1012.85 1014.30 1015.09 1016.77 1017.27 1017.37 1017.45 1017.91
Wind_Speed
4 3 3 3 3 3 3 3 1 2 2 2 3 5 4 5 4 3 3 13 11 13 13 12 13 13 13 13 11 11 11 11 10 9 10 11 11 10 9 9 8 8 7
4 4 4 3 3 3 3 3 3 3 3 3 4 5 5 4 4 4 3 5 14 14 14 14 14 14 14 14 13 12 12 11 11 11 11 11 11 11 10 10 8 7 7
5 4 4 3 3 4 5 3 3 3 3 2 5 3 4 3 5 6 4 4 6 15 15 14 15 15 16 16 15 15 14 12 12 12 11 11 9 9 10 9 9 9 8
5 4 4 4 4 3 3 3 3 3 3 3 2 4 3 4 6 6 5 5 4 4 11 15 14 14 17 17 16 15 14 12 13 12 11 11 11 11 10 10 10 10 10
4 4 3 3 4 4 4 4 3 3 3 2 3 4 4 4 6 6 6 5 5 5 3 9 13 17 19 19 16 16 15 15 13 12 12 13 12 11 10 10 10 9 8
4 4 3 3 4 5 5 4 4 3 2 3 3 4 4 4 4 4 6 6 7 7 5 5 4 6 16 17 16 16 17 15 15 15 13 13 12 11 10 10 9 8 8
4 5 3 4 4 5 6 5 3 4 3 3 1 3 3 3 4 3 3 5 6 8 6 6 4 3 4 16 16 16 18 18 16 16 14 12 11 10 10 10 11 9 8
4 4 5 4 5 4 5 5 3 2 3 4 3 3 3 4 1 3 3 2 5 4 6 7 6 5 5 3 8 15 16 17 18 18 16 14 14 14 13 11 11 10 10
5 5 5 5 5 4 5 5 5 5 3 3 5 4 2 4 2 2 4 4 4 4 6 7 8 8 7 7 11 13 17 16 18 19 18 17 16 15 14 13 12 12 12
6 6 6 5 5 4 5 5 5 4 3 3 2 1 2 3 3 4 1 3 4 5 5 5 7 8 9 6 12 16 17 15 16 19 19 19 17 16 17 16 15 14 14
4 5 7 6 5 4 5 6 5 6 3 3 3 4 2 2 1 2 3 4 2 4 4 5 5 6 7 8 7 10 18 16 16 18 19 18 18 19 19 18 16 16 15
3 3 5 5 5 5 5 5 6 6 6 4 3 4 4 3 3 3 3 4 5 4 4 5 6 6 6 8 11 15 18 17 15 17 18 19 17 18 19 17 16 16 16
3 6 5 5 5 6 5 4 4 5 4 3 5 4 2 4 2 3 2 2 4 3 3 4 5 6 6 7 8 14 14 14 15 14 15 16 16 15 15 14 13 8 8
4 4 6 6 6 5 4 3 3 4 4 4 6 5 3 4 3 3 3 3 2 3 2 6 3 5 6 6 9 14 7 12 13 14 15 15 13 12 10 10 10 10 11
4 5 6 5 5 5 5 6 4 6 5 5 6 5 5 4 4 4 3 3 4 3 4 4 4 4 4 5 8 7 7 10 12 12 15 15 15 12 11 11 10 10 11
5 5 6 6 5 6 6 5 5 5 5 4 4 6 5 4 4 4 4 4 4 4 3 4 3 3 2 4 6 6 7 9 9 10 12 13 13 13 13 13 13 13 13
6 6 7 7 7 5 4 5 5 5 6 5 5 6 7 5 5 3 3 4 4 4 4 3 4 2 2 4 2 4 5 5 5 11 12 11 12 13 13 14 14 14 14
6 7 7 7 1 7 4 6 6 4 3 5 6 6 7 4 5 5 4 6 4 5 4 4 2 3 2 3 2 2 2 3 4 10 13 12 13 14 14 13 13 13 13
7 7 6 2 7 7 7 6 6 4 5 5 5 6 7 7 8 4 5 5 3 3 3 3 3 1 1 1 2 3 2 2 2 6 9 12 12 11 11 12 12 11 11
6 6 5 10 12 8 8 15 9 11 5 11 4 4 7 8 8 5 6 2 4 4 4 3 2 3 4 3 3 3 3 3 3 3 5 7 10 9 11 11 10 12 12
4 5 4 11 17 14 11 14 14 15 13 1 5 5 7 9 13 8 4 6 5 6 4 5 5 5 6 4 5 2 3 4 4 3 4 4 5 4 4 8 9 13 12
7 3 4 5 9 4 7 12 12 7 5 5 10 8 7 12 12 16 15 14 9 7 9 7 5 7 10 5 5 6 4 2 3 3 5 4 7 6 5 5 11 11 11
4 5 5 4 5 7 12 13 17 5 4 7 9 6 6 6 9 8 10 12 13 15 13 6 8 8 7 7 5 7 8 5 4 4 4 4 4 5 5 6 11 11 11
3 3 4 3 1 1 11 14 12 6 5 6 5 4 4 7 5 6 4 4 5 5 6 6 9 9 7 3 7 6 7 4 3 4 5 4 4 5 4 2 11 12 13
4 4 3 5 6 6 9 8 3 0 2 3 4 3 3 4 9 9 5 6 6 5 4 7 9 10 7 7 6 5 5 6 4 4 8 4 4 4 3 2 3 11 13
3 3 6 6 7 7 12 11 7 2 3 3 3 2 5 5 8 9 5 5 5 4 7 5 4 5 5 3 7 8 7 8 4 2 7 4 7 5 3 2 2 1 3
Wind_Direction
202 210 216 189 184 197 186 205 228 263 267 295 283 223 216 204 186 196 201 198 200 207 200 202 200 200 201 199 198 200 200 204 204 209 203 195 197 203 204 202 205 201 194
193 218 209 193 190 192 187 181 210 236 244 177 252 225 212 208 174 207 191 222 207 209 216 208 208 208 208 204 203 201 205 208 210 215 208 216 207 204 208 209 212 215 219
229 203 191 185 200 184 180 175 200 213 240 242 250 236 194 209 199 204 209 207 214 217 222 220 212 208 209 209 209 204 210 200 210 214 216 215 220 214 216 215 217 216 225
210 201 194 191 180 180 165 169 178 186 218 238 269 282 231 195 218 209 203 207 212 217 229 230 227 215 220 209 208 205 213 206 209 214 216 218 217 216 219 221 222 220 220
167 187 207 216 177 169 172 179 182 173 190 239 255 268 253 218 210 208 205 210 217 223 233 249 248 217 220 217 210 208 213 209 210 212 217 220 220 223 219 221 224 217 223
153 179 196 213 161 164 169 172 188 181 188 203 243 269 249 239 220 209 200 195 210 216 217 232 256 228 219 224 213 212 215 211 208 209 217 221 221 215 220 224 230 226 222
199 170 186 186 165 180 178 178 162 182 218 205 116 305 289 256 231 211 206 211 208 215 207 220 221 231 233 228 232 221 219 219 213 214 213 214 219 221 225 228 230 227 226
218 188 176 200 177 163 165 172 171 174 198 187 147 58 297 308 252 191 191 211 216 200 218 216 217 209 206 234 243 239 226 225 224 217 215 214 212 218 221 225 230 224 229
223 203 181 192 194 169 184 180 185 192 197 204 195 140 224 240 318 188 219 208 195 196 204 205 205 211 208 212 227 240 242 234 227 226 217 214 212 211 214 217 219 221 227
188 171 186 195 192 188 183 189 200 196 172 197 112 166 239 162 184 329 257 255 221 213 202 213 208 208 205 203 223 228 231 237 234 233 230 220 214 213 218 217 215 219 223
218 192 180 194 201 204 202 193 187 194 199 193 170 180 168 234 89 127 288 315 313 237 213 208 198 208 205 198 214 225 232 229 228 229 232 228 222 218 222 225 225 226 226
213 232 210 191 209 219 212 206 214 195 201 214 205 204 167 188 195 174 223 253 244 257 211 201 202 206 197 198 215 221 230 218 223 222 225 229 227 227 229 231 231 234 238
213 224 216 213 203 213 231 224 222 223 206 220 206 229 211 216 186 167 160 249 260 297 304 230 211 195 197 201 205 212 223 218 215 212 214 220 224 227 232 235 240 216 193
228 215 215 210 217 211 222 236 242 250 229 240 258 239 232 239 213 201 188 171 306 293 297 254 246 204 196 197 206 215 214 220 211 209 206 205 209 214 218 224 201 169 162
239 246 232 215 225 219 220 213 223 230 225 225 235 232 225 234 208 220 201 176 183 246 269 275 264 231 203 185 199 195 206 212 214 211 209 194 190 190 194 174 167 153 148
231 223 231 218 228 226 228 218 229 238 234 246 246 250 249 242 228 196 199 209 197 185 242 220 251 261 236 215 198 196 201 205 217 202 201 195 188 189 162 162 157 153 153
228 217 222 225 228 238 312 304 276 267 259 269 258 249 261 254 258 258 200 205 217 178 204 274 238 240 250 236 238 206 190 189 191 193 189 187 166 164 170 162 163 162 162
224 227 217 220 14 55 47 39 28 6 346 306 300 302 287 280 266 245 233 222 218 220 194 229 317 326 254 26 13 283 261 234 219 196 173 168 165 168 166 162 168 167 167
240 230 225 173 112 104 92 43 340 305 288 295 288 300 292 294 281 263 248 245 181 220 236 189 196 258 252 180 150 167 182 264 234 200 185 162 163 166 157 159 172 176 175
265 266 258 112 105 112 2 350 317 276 247 265 254 258 272 281 277 282 258 252 135 165 191 155 218 225 234 215 207 205 204 190 209 174 162 157 154 163 163 173 182 181 185
2 7 32 137 154 163 186 210 229 245 227 281 295 274 277 281 288 262 241 237 209 205 189 208 200 209 241 223 223 160 200 196 176 166 159 160 145 152 176 189 199 193 192
16 39 80 125 181 207 262 217 218 246 302 318 299 289 271 282 270 269 247 243 219 209 217 226 253 241 245 227 208 210 183 187 236 190 156 174 155 165 189 204 210 192 195
55 44 56 96 156 205 209 216 217 220 258 267 262 272 289 276 266 260 250 249 257 259 254 260 245 238 253 221 212 200 209 182 191 161 129 159 158 170 189 183 196 192 192
42 37 48 44 52 188 202 222 234 238 242 257 272 291 301 308 345 319 264 233 245 250 245 240 241 252 236 253 210 211 206 179 118 151 158 151 161 175 173 205 184 196 203
42 41 19 29 34 28 51 62 78 330 268 297 320 22 346 353 349 349 359 352 344 348 347 314 298 279 246 222 181 148 177 180 191 174 187 130 147 134 128 165 206 212 205
46 57 62 57 65 50 26 34 32 36 23 353 344 75 55 16 339 0 12 4 357 336 336 344 356 342 322 286 183 203 201 207 171 162 171 149 142 126 116 60 42 48 130